Location: Cactus School
(34.5700°N, 118.0931°W)
Time: 15:29:28
(UTC-07:00)

Altair - Visible Passes

Search period start: 16 April 2024 00:00
Search period end: 26 April 2024 00:00
Orbit: 1502 x 1682 km, 47.2° (Epoch: 16 April)

Date Brightness Start Highest point End Pass type
(mag) Time Alt. Az. Time Alt. Az. Time Alt. Az.
16 Apr 8.4 00:35:16 10° WNW 00:44:17 41° N 00:52:59 10° ENE visible
16 Apr 7.4 02:40:40 10° NW 02:50:13 78° NNE 02:59:27 10° ESE visible
16 Apr 7.9 04:46:15 10° WNW 04:54:17 34° SW 05:02:11 10° S visible
16 Apr 7.6 19:56:22 10° SW 20:06:30 85° SE 20:16:20 10° NE visible
16 Apr 8.4 22:02:38 10° W 22:12:07 46° NNW 22:21:17 10° NE visible
17 Apr 8.4 00:09:55 10° WNW 00:18:56 40° N 00:27:38 10° ENE visible
17 Apr 7.5 02:15:25 10° NW 02:26:07 67° ENE 02:34:13 10° ESE visible
17 Apr 7.8 04:20:52 10° WNW 04:29:11 37° SW 04:37:21 10° SSE visible
17 Apr 8.4 21:37:12 10° W 21:46:46 48° NNW 21:56:02 10° NE visible
17 Apr 8.5 23:44:32 10° WNW 23:53:34 39° N 23:59:33 20° ENE visible
18 Apr 7.9 01:50:10 10° NW 02:07:11 17° ESE 02:08:57 10° ESE visible
18 Apr 7.8 04:05:29 39° SSW 04:05:29 39° SSW 04:12:27 10° SSE visible
18 Apr 8.3 21:11:46 10° W 21:21:25 50° NNW 21:30:47 10° NE visible
18 Apr 8.5 23:19:08 10° WNW 23:28:11 39° N 23:34:32 19° ENE visible
19 Apr 7.9 01:24:55 10° NW 01:46:20 - ESE 01:32:28 54° NNW visible
19 Apr 8.6 03:30:09 10° WNW 03:44:34 22° SSE 03:47:32 10° SSE visible
19 Apr 8.3 20:46:20 10° W 20:56:05 52° NNW 21:05:33 10° NE visible
19 Apr 8.5 22:53:44 10° WNW 23:02:48 39° N 23:09:52 16° ENE visible
20 Apr 7.9 00:59:39 10° NW 01:07:49 56° N 01:07:49 56° N visible
20 Apr 9.2 03:04:50 10° WNW 03:23:05 - SSE 03:05:47 13° WNW visible
20 Apr 8.3 20:20:55 10° W 20:30:45 55° NNW 20:40:19 10° NE visible
20 Apr 8.6 22:28:19 10° WNW 22:37:25 39° N 22:45:21 13° ENE visible
21 Apr 7.9 00:34:22 10° NW 00:43:19 57° N 00:43:19 57° N visible
21 Apr 9.1 02:39:31 10° WNW 02:41:17 17° WNW 02:41:17 17° WNW visible
21 Apr 8.3 19:55:30 10° WSW 20:05:26 58° NNW 20:15:05 10° NE visible
21 Apr 8.6 22:02:53 10° WNW 22:12:02 39° N 22:20:52 10° ENE visible
22 Apr 7.9 00:09:06 10° NW 00:18:39 55° NNE 00:18:55 55° NNE visible
22 Apr 8.9 02:14:13 10° WNW 02:16:54 21° WNW 02:16:54 21° WNW visible
22 Apr 8.6 21:37:28 10° WNW 21:46:39 39° N 21:55:31 10° ENE visible
22 Apr 7.9 23:43:48 10° NW 23:53:20 52° NNE 23:54:35 50° NE visible
23 Apr 8.7 01:48:56 10° WNW 01:52:34 26° WNW 01:52:34 26° WNW visible
23 Apr 8.6 21:12:02 10° WNW 21:21:15 39° N 21:30:11 10° ENE visible
23 Apr 8.1 23:18:32 10° NW 23:28:01 50° NNE 23:30:18 43° ENE visible
24 Apr 8.5 01:23:39 10° WNW 01:28:17 33° WNW 01:28:17 33° WNW visible
24 Apr 8.7 20:46:35 10° WNW 20:55:51 40° N 21:04:52 10° ENE visible
24 Apr 8.1 22:53:12 10° NW 23:02:41 48° NNE 23:06:03 36° ENE visible
25 Apr 8.2 00:58:23 10° WNW 01:04:02 40° WNW 01:04:02 40° WNW visible
25 Apr 8.7 20:21:07 10° WNW 20:30:28 41° N 20:39:33 10° ENE visible
25 Apr 8.2 22:27:53 10° NW 22:37:21 46° NNE 22:41:50 30° ENE visible
